FW2996 Weather Reports


time (UTC)temp
C
wind
direction
speed
KPH
gust
KPH
rain 1hr
cm
rain 24hr
cm
rain mn
cm
humidity
%
barometer
mb
20260506134817 23 124 0.0 0.0 0.00 0.00 0.00 97 1051.5
20260506134313 22 124 6.4 9.7 0.00 0.00 0.00 97 1051.3
20260506133810 22 129 8.0 9.7 0.00 0.00 0.00 96 1051.1
20260506133307 23 115 3.2 4.8 0.00 0.00 0.00 97 1051.2
20260506132804 22 124 6.4 9.7 0.00 0.00 0.00 97 1051.2
20260506132301 23 142 4.8 9.7 0.00 0.00 0.00 97 1051.1
20260506131759 23 122 4.8 6.4 0.00 0.00 0.00 96 1051.2
20260506131254 22 131 3.2 6.4 0.00 0.00 0.00 97 1050.8
20260506130751 22 119 4.8 6.4 0.00 0.00 0.00 97 1050.7
20260506130248 22 119 3.2 6.4 0.00 0.00 0.00 97 1050.8
20260506125746 22 116 4.8 4.8 0.00 0.00 0.00 97 1050.6
20260506125244 22 116 1.6 4.8 0.00 0.00 0.00 98 1050.5
20260506124742 22 113 3.2 4.8 0.00 0.00 0.00 98 1050.5
20260506124240 22 126 6.4 6.4 0.00 0.00 0.00 98 1050.5
20260506123737 22 119 3.2 6.4 0.00 0.00 0.00 98 1050.5
20260506123236 22 109 1.6 3.2 0.00 0.00 0.00 98 1050.4
20260506122732 22 168 3.2 4.8 0.00 0.00 0.00 98 1050.3
20260506122229 22 170 3.2 3.2 0.00 0.00 0.00 98 1050.3
20260506121728 22 227 0.0 3.2 0.00 0.00 0.00 98 1050.3
20260506121224 22 227 0.0 0.0 0.00 0.00 0.00 98 1050.6
20260506120722 22 227 0.0 0.0 0.00 0.00 0.00 98 1050.5
20260506120219 22 227 0.0 0.0 0.00 0.00 0.00 98 1050.4
20260506115717 22 227 0.0 0.0 0.00 0.00 0.00 98 1050.4
20260506115215 22 227 0.0 0.0 0.00 0.00 0.00 97 1050.6
20260506114712 22 227 0.0 1.6 0.00 0.00 0.00 97 1050.4
20260506114209 22 227 0.0 0.0 0.00 0.00 0.00 97 1050.5
20260506113708 22 227 0.0 0.0 0.00 0.00 0.00 97 1050.4
20260506113205 22 227 0.0 0.0 0.00 0.00 0.00 97 1050.4
20260506112701 22 227 0.0 0.0 0.00 0.00 0.00 97 1050.3
20260506112159 22 228 0.0 0.0 0.00 0.00 0.00 96 1050.5
20260506111656 22 227 0.0 0.0 0.00 0.00 0.00 96 1050.5
20260506111154 22 227 0.0 0.0 0.00 0.00 0.00 96 1050.3
20260506110651 22 227 0.0 0.0 0.00 0.00 0.00 96 1050.4
20260506110148 22 227 0.0 0.0 0.00 0.00 0.00 96 1050.2
20260506105644 22 227 0.0 0.0 0.00 0.00 0.00 96 1050.5
20260506105141 22 227 0.0 0.0 0.00 0.00 0.00 96 1050.3
20260506104640 22 228 0.0 0.0 0.00 0.00 0.00 96 1050.0
20260506104137 22 227 1.6 1.6 0.00 0.00 0.00 96 1050.3
20260506103634 23 228 0.0 1.6 0.00 0.00 0.00 96 1050.2
20260506103131 23 156 0.0 3.2 0.00 0.00 0.00 96 1050.2
20260506102629 23 158 0.0 3.2 0.00 0.00 0.00 96 1050.1
20260506102126 23 152 3.2 4.8 0.00 0.00 0.00 96 1050.0
20260506101623 23 176 4.8 9.7 0.00 0.00 0.00 96 1050.0
20260506101119 22 151 1.6 4.8 0.00 0.00 0.00 96 1049.7
20260506100618 22 184 1.6 9.7 0.00 0.00 0.00 96 1049.9
20260506100116 22 161 3.2 4.8 0.00 0.00 0.00 96 1049.7
20260506095615 22 172 0.0 3.2 0.00 0.00 0.00 97 1049.7
20260506095111 22 206 1.6 6.4 0.00 0.00 0.00 97 1049.7
20260506094608 22 186 3.2 9.7 0.00 0.00 0.00 97 1049.8
20260506094106 22 140 1.6 4.8 0.00 0.00 0.00 98 1049.7
20260506093604 22 157 0.0 4.8 0.00 0.00 0.00 98 1049.5
20260506093101 22 180 3.2 9.7 0.00 0.00 0.00 98 1049.4
20260506092559 22 171 3.2 6.4 0.00 0.00 0.00 98 1049.5
20260506092055 22 200 6.4 9.7 0.00 0.00 0.00 98 1049.6
20260506091554 22 168 4.8 17.7 0.00 0.00 0.00 98 1049.5
20260506091051 22 163 3.2 14.5 0.00 0.00 0.00 97 1049.4
20260506090549 23 186 6.4 6.4 0.00 0.00 0.00 96 1049.4
20260506090045 23 183 6.4 17.7 0.00 0.00 0.00 96 1049.1
20260506085542 23 201 8.0 14.5 0.00 0.00 0.00 95 1049.1
20260506085038 23 177 3.2 11.3 0.00 0.00 0.00 95 1049.3
20260506084535 23 170 3.2 6.4 0.00 0.00 0.00 95 1049.1
20260506084031 23 176 3.2 3.2 0.00 0.00 0.00 95 1049.2
20260506083529 23 199 1.6 9.7 0.00 0.00 0.00 95 1049.1
20260506083026 23 142 6.4 11.3 0.00 0.00 0.00 95 1049.4
20260506082523 23 203 4.8 9.7 0.00 0.00 0.00 95 1049.3
20260506082018 23 150 3.2 11.3 0.00 0.00 0.00 95 1049.1
20260506081517 23 184 3.2 9.7 0.00 0.00 0.00 95 1049.3
20260506081014 23 186 8.0 14.5 0.00 0.00 0.00 95 1049.4
20260506080511 23 190 6.4 14.5 0.00 0.00 0.00 94 1049.4
20260506073455 23 148 6.4 11.3 0.00 0.00 0.00 93 1049.5
20260506072952 23 171 8.0 16.1 0.00 0.00 0.00 93 1049.5
20260506072449 23 197 8.0 11.3 0.00 0.00 0.00 93 1049.7
20260506071947 23 186 6.4 14.5 0.00 0.00 0.00 93 1049.8
20260506071444 23 128 6.4 16.1 0.00 0.00 0.00 92 1049.7
20260506070941 23 196 6.4 12.9 0.00 0.00 0.00 92 1049.9
20260506070438 23 195 4.8 6.4 0.00 0.00 0.00 92 1049.9
20260506062416 23 208 3.2 12.9 0.00 0.00 0.00 93 1049.8
20260506061911 23 212 6.4 16.1 0.00 0.00 0.00 93 1049.7
20260506061408 23 156 6.4 14.5 0.00 0.00 0.00 93 1049.8
20260506060906 23 186 3.2 9.7 0.00 0.00 0.00 93 1049.8
20260506060404 23 163 6.4 12.9 0.00 0.00 0.00 93 1049.8
20260506051336 23 161 9.7 16.1 0.00 0.00 0.00 93 1049.9
20260506050833 23 151 8.0 12.9 0.00 0.00 0.00 92 1049.9
20260506050330 23 217 6.4 14.5 0.00 0.00 0.00 92 1049.9
20260506044821 23 165 3.2 4.8 0.00 0.00 0.00 93 1049.9
20260506044319 23 185 4.8 14.5 0.00 0.00 0.00 93 1049.9
20260506043816 23 180 9.7 14.5 0.00 0.00 0.00 93 1050.0
20260506043313 23 148 3.2 6.4 0.00 0.00 0.00 93 1049.9
20260506042811 23 176 9.7 16.1 0.00 0.00 0.00 93 1049.9
20260506042310 23 168 3.2 14.5 0.00 0.00 0.00 93 1049.9
20260506041809 23 182 4.8 11.3 0.00 0.00 0.00 93 1050.0
20260506041305 23 137 4.8 9.7 0.00 0.00 0.00 93 1049.7
20260506040802 23 148 9.7 14.5 0.00 0.00 0.00 93 1049.6
20260506040259 23 163 3.2 9.7 0.00 0.00 0.00 93 1049.7
20260506035756 23 140 4.8 14.5 0.00 0.00 0.00 93 1049.7
20260506035253 23 178 6.4 9.7 0.00 0.00 0.00 93 1049.6
20260506034750 23 132 8.0 14.5 0.00 0.00 0.00 93 1049.4
20260506034247 23 161 8.0 12.9 0.00 0.00 0.00 93 1049.5
20260506033744 23 164 4.8 9.7 0.00 0.00 0.00 92 1049.4
20260506033241 23 153 4.8 6.4 0.00 0.00 0.00 92 1049.4
20260506032738 23 136 3.2 14.5 0.00 0.00 0.00 91 1049.4
20260506032235 23 216 6.4 9.7 0.00 0.00 0.00 91 1049.2
20260506031731 23 161 3.2 9.7 0.00 0.00 0.00 91 1049.2
20260506031229 24 132 3.2 4.8 0.00 0.00 0.00 91 1049.0
20260506030727 24 155 8.0 11.3 0.00 0.00 0.00 90 1049.0
20260506030224 24 126 9.7 12.9 0.00 0.00 0.00 90 1048.9
20260506025721 24 163 3.2 9.7 0.00 0.00 0.00 89 1048.8
20260506025217 24 145 4.8 12.9 0.00 0.00 0.00 89 1048.8
20260506024714 24 131 3.2 6.4 0.00 0.00 0.00 88 1049.0
20260506024211 25 142 3.2 9.7 0.00 0.00 0.00 88 1048.6
20260506023707 25 147 3.2 12.9 0.00 0.00 0.00 88 1048.8
20260506023205 24 177 3.2 6.4 0.00 0.00 0.00 88 1048.5
20260506022702 25 152 3.2 6.4 0.00 0.00 0.00 87 1048.4
20260506022159 25 155 3.2 6.4 0.00 0.00 0.00 87 1048.4
20260506021657 25 144 3.2 4.8 0.00 0.00 0.00 87 1048.3
20260506021154 25 142 4.8 4.8 0.00 0.00 0.00 87 1048.1
20260506020651 25 143 3.2 6.4 0.00 0.00 0.00 87 1048.0
20260506020148 25 159 6.4 11.3 0.00 0.00 0.00 87 1048.0
20260506015646 25 157 6.4 9.7 0.00 0.00 0.00 86 1048.0
20260506015143 25 154 8.0 12.9 0.00 0.00 0.00 86 1047.8
20260506014635 25 136 4.8 9.7 0.00 0.00 0.00 86 1047.6
20260506014130 25 155 1.6 6.4 0.00 0.00 0.00 86 1047.6
20260506013629 25 131 6.4 9.7 0.00 0.00 0.00 85 1047.6
20260506013125 25 150 6.4 6.4 0.00 0.00 0.00 85 1047.6
20260506012621 25 152 4.8 11.3 0.00 0.00 0.00 85 1047.6
20260506012117 25 134 3.2 6.4 0.00 0.00 0.00 84 1047.4
20260506011615 25 135 4.8 6.4 0.00 0.00 0.00 84 1047.5
20260506011111 26 162 4.8 9.7 0.00 0.00 0.00 83 1047.8
20260506010605 26 137 3.2 6.4 0.00 0.00 0.00 82 1047.6
20260506005559 26 150 1.6 4.8 0.00 0.00 0.00 81 1047.6
20260506005055 26 148 3.2 6.4 0.00 0.00 0.00 81 1047.8
20260506004552 26 157 3.2 4.8 0.00 0.00 0.00 80 1047.6
20260506004049 26 145 3.2 4.8 0.00 0.00 0.00 79 1047.6
20260506003545 27 127 3.2 6.4 0.00 0.00 0.00 78 1047.6
20260506003042 27 172 4.8 9.7 0.00 0.00 0.00 77 1047.5
20260506002538 27 175 1.6 4.8 0.00 0.00 0.00 77 1047.6
20260506002034 27 177 1.6 6.4 0.00 0.00 0.00 76 1047.4
20260506001530 27 208 3.2 9.7 0.00 0.00 0.00 76 1047.6
20260506001027 27 243 6.4 6.4 0.00 0.00 0.00 75 1047.6
20260506000525 27 174 4.8 9.7 0.00 0.00 0.00 75 1047.6
20260506000022 27 143 6.4 6.4 0.00 0.00 0.00 75 1047.4
20260505235520 27 190 1.6 3.2 0.00 0.00 0.00 75 1047.4
20260505235016 27 149 9.7 12.9 0.00 0.00 0.00 74 1047.3
20260505234513 27 262 1.6 3.2 0.00 0.00 0.00 75 1047.3
20260505234010 27 169 4.8 4.8 0.00 0.00 0.00 74 1047.2
20260505233508 27 140 1.6 12.9 0.00 0.00 0.00 75 1047.1
20260505233005 27 173 3.2 11.3 0.00 0.00 0.00 75 1047.1
20260505232503 27 198 9.7 12.9 0.00 0.00 0.00 74 1047.1
20260505232000 27 243 8.0 17.7 0.00 0.00 0.00 74 1047.3
20260505231457 27 243 8.0 17.7 0.00 0.00 0.00 74 1047.1
20260505230955 27 243 8.0 17.7 0.00 0.00 0.00 74 1047.2
20260505230452 27 163 12.9 17.7 0.00 0.00 0.00 73 1047.2
20260505225948 27 163 12.9 17.7 0.00 0.00 0.00 73 1047.3
20260505225446 27 191 6.4 11.3 0.00 0.00 0.00 73 1047.3
20260505224936 28 251 6.4 9.7 0.00 0.00 0.00 74 1047.1
20260505224433 28 251 6.4 9.7 0.00 0.00 0.00 74 1046.8
20260505223931 28 251 6.4 9.7 0.00 0.00 0.00 74 1047.2
20260505223427 28 213 9.7 14.5 0.00 0.00 0.00 73 1047.2
20260505222924 28 232 4.8 9.7 0.00 0.00 0.00 72 1046.9
20260505222420 28 95 6.4 11.3 0.00 0.00 0.00 73 1046.9
20260505221916 28 175 6.4 9.7 0.00 0.00 0.00 72 1047.0
20260505221414 28 174 6.4 11.3 0.00 0.00 0.00 71 1047.0
20260505220911 28 127 12.9 16.1 0.00 0.00 0.00 72 1047.0
20260505220407 28 151 8.0 9.7 0.00 0.00 0.00 71 1047.0
20260505215905 28 119 6.4 12.9 0.00 0.00 0.00 72 1046.9
20260505215403 28 168 8.0 24.1 0.00 0.00 0.00 71 1047.1
20260505214901 28 147 12.9 17.7 0.00 0.00 0.00 69 1047.1
20260505214358 29 169 14.5 17.7 0.00 0.00 0.00 69 1047.2
20260505213855 28 173 4.8 14.5 0.00 0.00 0.00 70 1047.4
20260505213353 29 194 9.7 12.9 0.00 0.00 0.00 68 1047.2
20260505212849 29 190 9.7 16.1 0.00 0.00 0.00 68 1047.6
20260505212346 29 232 9.7 14.5 0.00 0.00 0.00 69 1047.4
20260505211842 30 164 8.0 12.9 0.00 0.00 0.00 67 1047.5
20260505211340 28 176 6.4 14.5 0.00 0.00 0.00 70 1047.6
20260505210836 28 202 12.9 16.1 0.00 0.00 0.00 70 1047.5
20260505210333 28 116 6.4 11.3 0.00 0.00 0.00 67 1047.5
20260505205830 28 179 12.9 22.5 0.00 0.00 0.00 67 1047.8
20260505205328 28 243 9.7 12.9 0.00 0.00 0.00 69 1047.9
20260505204824 28 277 6.4 12.9 0.00 0.00 0.00 69 1047.8
20260505204323 28 188 6.4 17.7 0.00 0.00 0.00 68 1047.9
20260505203820 28 173 6.4 11.3 0.00 0.00 0.00 70 1047.8
20260505203316 29 233 8.0 12.9 0.00 0.00 0.00 68 1048.0
20260505202813 28 209 9.7 14.5 0.00 0.00 0.00 69 1048.3
20260505202309 28 209 9.7 14.5 0.00 0.00 0.00 70 1048.5
20260505201806 28 145 3.2 12.9 0.00 0.00 0.00 69 1048.3
20260505201303 28 247 9.7 16.1 0.00 0.00 0.00 68 1048.6
20260505200801 28 187 6.4 16.1 0.00 0.00 0.00 69 1048.6
20260505200258 28 163 3.2 20.9 0.00 0.00 0.00 71 1048.7
20260505195753 28 188 4.8 12.9 0.00 0.00 0.00 70 1048.7
20260505195251 28 209 9.7 12.9 0.00 0.00 0.00 71 1048.7
20260505194748 28 202 9.7 14.5 0.00 0.00 0.00 70 1048.6
20260505194245 27 153 4.8 14.5 0.00 0.00 0.00 74 1048.7
20260505193740 28 227 9.7 22.5 0.00 0.00 0.00 72 1048.7
20260505193238 27 151 8.0 12.9 0.00 0.00 0.00 72 1049.1
20260505192736 27 138 6.4 11.3 0.00 0.00 0.00 74 1049.0
20260505192234 27 220 8.0 22.5 0.00 0.00 0.00 73 1049.0
20260505191731 28 140 11.3 14.5 0.00 0.00 0.00 71 1049.1
20260505191229 27 192 11.3 24.1 0.00 0.00 0.00 74 1049.1
20260505190720 27 191 11.3 20.9 0.00 0.00 0.00 73 1049.1
20260505190219 27 177 4.8 9.7 0.00 0.00 0.00 73 1049.0
20260505185716 27 185 11.3 14.5 0.00 0.00 0.00 73 1049.2
20260505185212 27 190 4.8 14.5 0.00 0.00 0.00 76 1049.3
20260505184708 26 218 1.6 11.3 0.00 0.00 0.00 78 1049.3
20260505184206 26 193 8.0 12.9 0.00 0.00 0.00 77 1049.4
20260505183702 26 186 8.0 12.9 0.00 0.00 0.00 78 1049.4
20260505183200 26 186 8.0 11.3 0.00 0.00 0.00 76 1049.7
20260505182655 26 216 9.7 11.3 0.00 0.00 0.00 76 1049.8
20260505182153 25 251 6.4 12.9 0.00 0.00 0.00 80 1049.7
20260505181649 25 192 8.0 20.9 0.00 0.00 0.00 81 1049.8
20260505181147 25 207 4.8 11.3 0.00 0.00 0.00 80 1049.9
20260505180643 25 235 6.4 11.3 0.00 0.00 0.00 81 1049.9
20260505180141 25 230 4.8 9.7 0.00 0.00 0.00 82 1049.8
20260505175637 24 242 16.1 17.7 0.00 0.00 0.00 83 1050.0
20260505175133 24 237 6.4 17.7 0.00 0.00 0.00 84 1050.1
20260505174625 23 192 3.2 16.1 0.00 0.00 0.00 84 1050.1
20260505174121 23 223 9.7 14.5 0.00 0.00 0.00 85 1050.3
20260505173617 24 195 6.4 9.7 0.00 0.00 0.00 84 1050.3
20260505173114 24 195 3.2 12.9 0.00 0.00 0.00 84 1050.3
20260505172611 23 211 6.4 14.5 0.00 0.00 0.00 86 1050.3
20260505172108 23 245 3.2 12.9 0.00 0.00 0.00 86 1050.4
20260505171602 23 222 14.5 16.1 0.00 0.00 0.00 87 1050.4
20260505171100 23 214 4.8 16.1 0.00 0.00 0.00 87 1050.6
20260505170556 23 219 6.4 14.5 0.00 0.00 0.00 87 1050.6
20260505170053 23 212 11.3 16.1 0.00 0.00 0.00 87 1050.5
20260505165548 23 212 4.8 12.9 0.00 0.00 0.00 88 1050.4
20260505165044 22 206 4.8 9.7 0.00 0.00 0.00 88 1050.4
20260505164540 22 210 6.4 14.5 0.00 0.00 0.00 88 1050.5
20260505164038 22 224 6.4 9.7 0.00 0.00 0.00 88 1050.4
20260505163536 23 177 3.2 11.3 0.00 0.00 0.00 88 1050.3
20260505163033 22 174 3.2 11.3 0.00 0.00 0.00 88 1050.5
20260505162526 22 184 6.4 17.7 0.00 0.00 0.00 89 1050.4
20260505162023 22 191 3.2 11.3 0.00 0.00 0.00 89 1050.4
20260505161520 22 228 6.4 11.3 0.00 0.00 0.00 90 1050.4
20260505161017 22 227 6.4 9.7 0.00 0.00 0.00 90 1050.5
20260505160515 22 208 6.4 11.3 0.00 0.00 0.00 91 1050.5
20260505152951 21 198 8.0 12.9 0.00 0.00 0.00 92 1050.6
20260505152449 21 175 6.4 9.7 0.00 0.00 0.00 92 1050.5
20260505151944 21 248 4.8 9.7 0.00 0.00 0.00 93 1050.3
20260505151440 21 210 11.3 16.1 0.00 0.00 0.00 93 1050.2
20260505150937 21 217 3.2 11.3 0.00 0.00 0.00 93 1050.3
20260505150433 21 175 3.2 6.4 0.00 0.00 0.00 93 1050.4
20260505140358 20 194 4.8 11.3 0.00 0.00 0.00 94 1050.1